STARLINK-2658 (48473 NORAD) Tracking and Keplerian Element Data

This shows tracking and keplerian element data for the satellite.

Feedback or suggestion? Click here.




ElementValue
Catalog48473
NameSTARLINK-2658
Epoch Orbit1404
Epoch Day211.25001157
Epoch Year2021
RAAN188.8617
Inclination53.0551
Eccentricity0.0001602
Argument of Perigee81.0555
Mean Anonmoly322.2504
Mean Motion15.06391167
Decay Rate-9.459E-05
L11 48473U 21040AX 21211.25001157 -.00009459 00000-0 -61712-3 0 9990
L22 48473 53.0551 188.8617 0001602 81.0555 322.2504 15.06391167 14045

Live tracking and technical data element details for STARLINK-2658 (NORAD 48473). STARLINK-2658 can be tracked NOW for your location showing map with azimuth and elevation plus other details from your city location.

Track the satellite on the map from your city or location and see movement details for azimuth, elevation, latitude, longitude, range, height, and movement on the map or in text.







IsCatalogInMostPopularTable: catalog: 48473, numindb: 25
Update: records affected: 1



GetName: 48473 STARLINK-2658

Hit Count: updated at: Sat, 31 Jul 2021 16:35:22 GMT